Regional Weather Roundup
Issued by NWS Kansas City/Pleasant Hill, MO

Home | Current Version | Previous Version | Text Only | Print | Product List | Glossary On
Versions: 1 2 3 4 5 6 7 8 9 10 11 12 13 14 15 16 17 18 19 20 21 22 23 24 25 26 27 28 29 30 31 32 33 34 35 36 37 38 39 40 41 42 43 44 45 46 47 48 49 50
000
ASUS43 KEAX 281904
RWREAX

WEATHER ROUNDUP FOR EASTERN KANSAS AND NORTHWEST MISSOURI
NATIONAL WEATHER SERVICE KANSAS CITY/PLEASANT HILL MO
100 PM CST FRI NOV 28 2014

KSZ040-057-103>105-MOZ028-029-037-043-282000-
...KANSAS CITY METROPOLITAN AREA...

CITY           SKY/WX    TMP DP  RH WIND       PRES   REMARKS
K.C. INTL      PTSUNNY   54  32  43 SW17      29.86F
K.C. DOWNTOWN  MOSUNNY   57  31  37 SW14      29.86F
LEES SUMMIT    SUNNY     56  31  38 SW17G25   29.87F
OLATHE - IXD   SUNNY     56  32  40 S17       29.87F
OLATHE - OJC   SUNNY     55  31  39 SW18G24   29.87F
LAWRENCE       SUNNY     57  31  37 SW14      29.85F

$$

MOZ001>008-011>017-020>025-030>033-038>040-044>046-053-054-282000-
...NORTHERN AND CENTRAL MISSOURI...

CITY           SKY/WX    TMP DP  RH WIND       PRES   REMARKS
ST. JOSEPH     MOSUNNY   54  31  41 S14       29.84F
MOSBY          PTCLDY    54  32  43 S10       29.86F
WARRENSBURG    SUNNY     55  32  41 S15       29.89F
WHITEMAN AFB   SUNNY     57  33  39 SW18      29.89F
CLINTON        SUNNY     59  36  41 SW16G24   29.93F
SEDALIA        SUNNY     57  33  40 SW16      29.91F
WARSAW         NOT AVBL
MARSHALL       MOSUNNY   57  36  44 SW15G21   29.91F
CHILLICOTHE      N/A     51  33  50 S7G18     29.86F
KIRKSVILLE     SUNNY     48  32  53 SW15      29.89F

$$

MOZ041-047>049-056>058-063>065-088>090-097-282000-
...EASTERN AND SOUTHERN MISSOURI...

CITY           SKY/WX    TMP DP  RH WIND       PRES   REMARKS
ST. LOUIS INTL MOSUNNY   50  32  50 S14       30.02F
SPIRIT OF STL  SUNNY     51  32  48 S10G18    30.00F
COLUMBIA       SUNNY     55  33  43 S13       29.93F
JEFFERSON CITY SUNNY     56  32  40 S9        29.95F
MEXICO         SUNNY     55  37  50 S16G23    29.94F
ROLLA          SUNNY     53  33  46 S18       29.96F
LEBANON        SUNNY     57  30  35 S22G30    29.97F
OSAGE BEACH    SUNNY     61  34  36 SW13G24   29.95F
SPRINGFIELD    SUNNY     61  33  35 S25G33    29.96F
BRANSON        SUNNY     59  32  36 S12       30.04F
JOPLIN         SUNNY     61  34  36 S23G32    29.95F
WEST PLAINS    SUNNY     51  31  46 S16       30.08F

$$

IAZ060-094-KSZ022-034>040-054-083-096-NEZ052-066-093-282000-
...KANSAS...SOUTHEAST NEBRASKA AND IOWA...

CITY           SKY/WX    TMP DP  RH WIND       PRES   REMARKS
TOPEKA         SUNNY     59  32  36 S10       29.85F
MANHATTAN      MOSUNNY   61  32  33 SW10      29.80F
EMPORIA        SUNNY     63  32  31 SW15G24   29.84F
CHANUTE        SUNNY     58  33  39 S20G29    29.91F
WICHITA        MOSUNNY   58  33  39 S16       29.86F
OMAHA          MOSUNNY   45  29  53 S9        29.77F
LINCOLN        MOSUNNY   54  29  38 S10       29.75F
FALLS CITY     MOSUNNY   54  30  40 S12       29.79F
LAMONI         MOSUNNY   45  31  58 S9        29.83F
DES MOINES     PTSUNNY   40  27  59 S9        29.82F WCI  34

$$




USA.gov is the U.S. government's official web portal to all federal, state and local government web resources and services.